Location: Cahas Mountain Overlook
(37.0833°N, 80.1000°W)
Time: 06:50:45
(UTC-04:00)

Tiros 1 - Pass Details

Date: 11 February 2026
Orbit: 618 x 650 km, 48.4° (Epoch: 14 March)

Event Time Altitude Azimuth Distance (km) Brightness Sun altitude
Rises 09:03:43 0° 179° (S) 2,892 11.0 18.9°
Reaches altitude 10° 09:07:59 10° 141° (SE) 1,983 11.5 19.6°
Maximum altitude 09:08:59 11° 128° (SE) 1,939 12.1 19.8°
Drops below altitude 10° 09:10:00 10° 115° (ESE) 1,982 11.7 19.9°
Sets 09:14:14 0° 77° (ENE) 2,887 11.1 20.6°
